FW7254 Weather Reports


Display with metric or nautical units.
time (UTC)temp
F
wind
direction
speed
MPH
gust
MPH
rain 1hr
in
rain 24hr
in
rain mn
in
humidity
%
barometer
mb
20260903093329 78 22 0.0 0.0 0.00 0.00 0.00 74 1009.4
20260903091836 78 22 0.0 0.0 0.00 0.00 0.00 73 1009.5
20260903090315 78 22 0.0 0.0 0.00 0.00 0.00 73 1009.4
20260903084822 78 22 0.0 0.0 0.00 0.00 0.00 73 1009.8
20260903083311 78 22 0.0 0.0 0.00 0.00 0.00 72 1009.8
20260903081837 79 22 1.0 0.0 0.00 0.00 0.00 71 1010.3
20260903080341 79 22 0.0 0.0 0.00 0.00 0.00 71 1010.9
20260903074828 79 22 1.0 0.0 0.00 0.00 0.00 72 1010.0
20260903073325 79 22 0.0 0.0 0.00 0.00 0.00 72 1009.5
20260903071832 80 22 2.0 0.0 0.00 0.00 0.00 72 1010.6
20260903070318 80 24 3.0 0.0 0.00 0.00 0.00 71 1010.4
20260903064817 83 32 3.0 0.0 0.00 0.00 0.00 70 1010.6
20260903063323 84 58 1.0 0.0 0.00 0.00 0.00 75 1010.4
20260903061850 85 57 0.0 0.0 0.00 0.00 0.00 76 1010.1
20260903060313 85 58 0.0 0.0 0.00 0.00 0.00 76 1008.6
20260903054819 86 58 0.0 0.0 0.00 0.00 0.00 75 1009.2
20260903053322 86 57 0.0 0.0 0.00 0.00 0.00 74 1009.0
20260903051829 86 58 0.0 0.0 0.00 0.00 0.00 73 1009.2
20260903050330 87 57 0.0 0.0 0.00 0.00 0.00 72 1009.3
20260903044836 87 57 0.0 0.0 0.00 0.00 0.00 71 1008.9
20260903043319 88 58 0.0 0.0 0.00 0.00 0.00 70 1008.8
20260903041827 87 58 0.0 0.0 0.00 0.00 0.00 71 1009.3
20260903040328 87 58 0.0 0.0 0.00 0.00 0.00 72 1009.0
20260903034814 86 58 0.0 0.0 0.00 0.00 0.00 72 1009.2
20260903033320 86 58 0.0 0.0 0.00 0.00 0.00 73 1009.1
20260903031842 86 58 0.0 0.0 0.00 0.00 0.00 73 1009.4
20260903030327 86 58 0.0 0.0 0.00 0.00 0.00 72 1009.4
20260903024835 86 58 0.0 0.0 0.00 0.00 0.00 73 1009.5
20260903023331 85 58 0.0 0.0 0.00 0.00 0.00 73 1009.6
20260903021822 85 58 0.0 0.0 0.00 0.00 0.00 74 1009.4
20260903020415 85 58 0.0 0.0 0.00 0.00 0.00 75 1009.5
20260903020332 85 58 0.0 0.0 0.00 0.00 0.00 75 1009.5
20260903014838 84 58 0.0 0.0 0.00 0.00 0.00 75 1009.6
20260903013316 84 58 0.0 0.0 0.00 0.00 0.00 76 1009.7
20260903011823 84 58 0.0 0.0 0.00 0.00 0.00 77 1009.6
20260903010328 83 57 0.0 0.0 0.00 0.00 0.00 78 1009.6
20260903004835 83 57 0.0 0.0 0.00 0.00 0.00 79 1009.7
20260903003317 83 58 0.0 0.0 0.00 0.00 0.00 80 1009.8
20260903001825 83 58 0.0 0.0 0.00 0.00 0.00 81 1009.7
20260903000328 82 58 0.0 0.0 0.00 0.00 0.00 83 1009.8
20260902234834 82 58 0.0 0.0 0.00 0.00 0.00 83 1009.8
20260902233340 82 58 0.0 0.0 0.00 0.00 0.00 83 1010.0
20260902231824 81 57 0.0 0.0 0.00 0.00 0.00 84 1010.0
20260902230328 80 58 0.0 0.0 0.00 0.00 0.00 84 1010.2
20260902224831 80 57 0.0 0.0 0.00 0.00 0.00 85 1010.1
20260902223314 80 58 0.0 0.0 0.00 0.00 0.00 86 1010.0
20260902221821 79 58 0.0 0.0 0.00 0.00 0.00 86 1009.9
20260902220345 79 57 0.0 0.0 0.00 0.00 0.00 86 1009.8
20260902214826 79 58 0.0 0.0 0.00 0.00 0.00 87 1009.8
20260902213327 78 57 0.0 0.0 0.00 0.00 0.00 88 1010.3
20260902211829 78 57 0.0 0.0 0.00 0.00 0.00 88 1010.3
20260902210355 78 57 0.0 0.0 0.00 0.00 0.00 88 1010.4
20260902204821 78 58 0.0 0.0 0.00 0.00 0.00 88 1010.4
20260902203316 78 58 0.0 0.0 0.00 0.00 0.00 88 1010.1
20260902201824 78 58 0.0 0.0 0.00 0.00 0.00 88 1010.3
20260902200348 78 58 0.0 0.0 0.00 0.00 0.00 88 1010.3
20260902194814 78 57 0.0 0.0 0.00 0.00 0.00 88 1010.6
20260902193340 78 58 0.0 0.0 0.00 0.00 0.00 88 1010.4
20260902191830 78 57 0.0 0.0 0.00 0.00 0.00 87 1010.7
20260902190333 78 58 0.0 0.0 0.00 0.00 0.00 87 1010.8
20260902184814 78 58 0.0 0.0 0.00 0.00 0.00 87 1010.9
20260902183320 79 58 0.0 0.0 0.00 0.00 0.00 87 1010.8
20260902181828 79 58 0.0 0.0 0.00 0.00 0.00 88 1010.6
20260902180334 79 57 0.0 0.0 0.00 0.00 0.00 88 1011.0
20260902174839 79 57 0.0 0.0 0.00 0.00 0.00 88 1011.3
20260902173315 79 58 0.0 0.0 0.00 0.00 0.00 88 1011.3
20260902171822 79 58 0.0 0.0 0.00 0.00 0.00 88 1011.4
20260902170354 79 57 0.0 0.0 0.00 0.00 0.00 88 1011.5
20260902164812 79 57 0.0 0.0 0.00 0.00 0.00 88 1011.6
20260902163318 79 58 0.0 0.0 0.00 0.00 0.00 88 1011.3
20260902161827 79 58 0.0 0.0 0.00 0.00 0.00 88 1011.4
20260902160336 79 57 0.0 0.0 0.00 0.00 0.00 88 1011.8
20260902154818 79 58 0.0 0.0 0.00 0.00 0.00 88 1012.0
20260902153322 79 58 0.0 0.0 0.00 0.00 0.00 88 1012.1
20260902151835 79 58 0.0 0.0 0.00 0.00 0.00 88 1012.0
20260902150313 80 58 0.0 0.0 0.00 0.00 0.00 88 1011.9
20260902144837 80 58 0.0 0.0 0.00 0.00 0.00 87 1012.0
20260902143341 80 57 0.0 0.0 0.00 0.00 0.00 87 1012.3
20260902141850 80 58 0.0 0.0 0.00 0.00 0.00 87 1012.4
20260902140327 80 58 0.0 0.0 0.00 0.00 0.00 87 1012.5
20260902134835 80 58 0.0 0.0 0.00 0.00 0.00 87 1012.4
20260902133331 80 57 0.0 0.0 0.00 0.00 0.00 86 1012.4
20260902131815 80 57 0.0 0.0 0.00 0.00 0.00 86 1012.4
20260902130319 80 58 0.0 0.0 0.00 0.00 0.00 86 1012.5
20260902124830 80 58 0.0 0.0 0.00 0.00 0.00 85 1012.7
20260902123329 80 57 0.0 0.0 0.00 0.00 0.00 85 1012.6
20260902121817 80 57 0.0 0.0 0.00 0.00 0.00 85 1012.6
20260902120322 80 58 0.0 0.0 0.00 0.00 0.00 85 1012.7
20260902114831 81 58 0.0 0.0 0.00 0.00 0.00 84 1012.8
20260902113314 81 57 0.0 0.0 0.00 0.00 0.00 84 1013.0
20260902111841 81 57 0.0 0.0 0.00 0.00 0.00 84 1012.9
20260902110325 81 58 0.0 0.0 0.00 0.00 0.00 83 1012.8
20260902104813 81 58 0.0 0.0 0.00 0.00 0.00 82 1012.9
20260902103316 81 58 0.0 0.0 0.00 0.00 0.00 81 1012.9
20260902101827 81 58 0.0 0.0 0.00 0.00 0.00 81 1012.7
20260902100352 81 57 0.0 0.0 0.00 0.00 0.00 81 1012.5
20260902094812 81 58 0.0 0.0 0.00 0.00 0.00 80 1012.1